Погода в Лузино

Россия / Омская область     54°56′53″N   73°01′53″E
темп.,
°C
ветер,
м/с
пор.,
м/с
влажн.,
%
обл.,
%
осадки,
мм/ч
давл.,
гПа
погр.,
м
26 февраля, пт
пт2600:00−28зсз479853 0.0 1024104
03:00−27з479796 0.0 1025154
06:00−28зсз349885 0.1 102863
09:00−31з349837 0.0 103046
12:00−27з359431 0.0 1031258
15:00−24зюз469260 0.0 1032368
18:00−25зюз349677 0.0 103282
21:00−29зюз349688 0.0 103355
27 февраля, сб
сб2700:00−30юз339776 0.0 103427
03:00−31юз339830 0.0 103321
06:00−32юз239827 0.0 103419
09:00−31ююз239824 0.0 103419
12:00−26ю349612 0.0 1034194
15:00−23ююв459335 0.0 1033289
18:00−26юв349640 0.0 103282
21:00−29юв479622 0.0 1031130
28 февраля, вс
вс2800:00−28юв479920 0.0 1029126
03:00−25юв599793 0.0 1027192
06:00−22юв6109497 0.0 1025255
09:00−20юв61393100 0.0 1022344
12:00−16юв71193100 0.2 1020420
15:00−14юв71292100 0.1 1017496
18:00−12вюв71294100 0.4 1014497
21:00−12вюв71494100 0.9 1010439
1 марта, пн
пн100:00−10в61195100 2.3 1007406
03:00−10св5994100 1.0 1006312
06:00−12ссв3696100 1.0 1007129
09:00−12ссв359697 0.1 1008156
12:00−10св239498 0.3 1008241
15:00−8ссв3394100 0.5 1008296
18:00−9с4695100 1.1 1009320
21:00−13ссз369689 0.3 1011108
2 марта, вт
вт200:00−16сз349686 0.3 101484
03:00−17зсз359695 0.0 101599
06:00−17зсз359698 0.1 101697
09:00−18з359686 0.0 101687
12:00−15з349290 0.1 1017364
15:00−14з3590100 0.0 1016425
18:00−16зюз3394100 0.0 101637
21:00−20зюз339821 0.0 101622